{"data":{"norad_id":60375,"intl_designator":"2024-138W","name":"STARLINK-32281","alt_names":[],"object_type":"PAYLOAD","status":"ACTIVE","operator":null,"country":"US","launch_date":"2024-08-04","launch_site_code":"AFWTR","launch_vehicle":null,"mission":null,"orbit_class":"UNKNOWN","rcs_meters":null,"size_class":null,"mass_kg":null,"dimensions":null,"purposes":["comms"],"wikipedia_slug":null,"has_3d_model":false,"image_url":null,"decayed_at":null,"tle_current":{"epoch":"2026-09-21T20:42:27.439776Z","epoch_age_seconds":67831,"freshness":"FRESH","line1":"1 60375U 24138W   26264.86281759 -.00007577  00000+0 -21318-3 0  9990","line2":"2 60375  53.1597 115.4836 0001558  99.0977 261.0202 15.34420942120607","mean_motion":15.34420942,"eccentricity":0.0001558,"inclination_deg":53.1597,"raan_deg":115.4836,"arg_perigee_deg":99.0977,"mean_anomaly_deg":261.0202,"bstar":-0.00021318,"rev_number":12060,"period_min":93.846477233494,"perigee_km":461.5752036658,"apogee_km":463.70679008962,"semimajor_km":6840.7779968777,"source":"CELESTRAK","updated_at":"2026-09-22T09:00:49.227773Z"}}}